N914BD KTEB-KHPN

Flight info

Callsign N914BD
Flight time 0h 11m
Altitude 17000
Route BREZY V39 CMK
Aircraft GLF5/M-SDFWEGERGFE/L

Departure

Time 2026-04-26 21:31
Airport Teterboro Airport (KTEB)

Arrival

Time 2026-04-26 21:43
Airport Westchester County Airport (KHPN)
Time Latitude Longitude Altitude Speed Heading
2026-04-26 20:54 40.84147 -74.06484 11 ft 0 kts 211°
2026-04-26 21:27 40.84139 -74.06492 11 ft 4 kts 216°
2026-04-26 21:28 40.84104 -74.06530 11 ft 8 kts 226°
2026-04-26 21:28 40.84058 -74.06516 11 ft 10 kts 103°
2026-04-26 21:28 40.84043 -74.06409 11 ft 12 kts 99°
2026-04-26 21:28 40.84038 -74.06296 11 ft 13 kts 90°
2026-04-26 21:29 40.84024 -74.06175 11 ft 13 kts 145°
2026-04-26 21:29 40.83931 -74.06177 11 ft 13 kts 184°
2026-04-26 21:29 40.83891 -74.06156 11 ft 0 kts 112°
2026-04-26 21:30 40.83886 -74.06137 11 ft 7 kts 106°
2026-04-26 21:30 40.83898 -74.06040 11 ft 11 kts 29°
2026-04-26 21:30 40.83941 -74.06035 11 ft 0 kts 360°
2026-04-26 21:31 40.83994 -74.06033 11 ft 31 kts
2026-04-26 21:31 40.84601 -74.05986 12 ft 140 kts
2026-04-26 21:31 40.85746 -74.05970 798 ft 176 kts 358°
2026-04-26 21:31 40.86848 -74.06311 2332 ft 176 kts 348°
2026-04-26 21:32 40.88186 -74.06747 2809 ft 232 kts 349°
2026-04-26 21:32 40.89876 -74.07240 3003 ft 256 kts 350°
2026-04-26 21:32 40.91620 -74.07709 2985 ft 257 kts 351°
2026-04-26 21:32 40.93366 -74.08154 2983 ft 256 kts 351°
2026-04-26 21:33 40.95092 -74.08577 2981 ft 255 kts 351°
2026-04-26 21:33 40.96838 -74.08998 2978 ft 254 kts 352°
2026-04-26 21:33 40.98592 -74.09416 2976 ft 255 kts 352°
2026-04-26 21:33 41.00330 -74.09828 2974 ft 255 kts 352°
2026-04-26 21:34 41.02075 -74.10241 2971 ft 255 kts 352°
2026-04-26 21:34 41.03839 -74.10657 2971 ft 256 kts 352°
2026-04-26 21:34 41.05577 -74.11068 2974 ft 255 kts 352°
2026-04-26 21:34 41.07321 -74.11479 2973 ft 255 kts 351°
2026-04-26 21:35 41.09068 -74.11891 2968 ft 255 kts 352°
2026-04-26 21:35 41.10487 -74.12226 2967 ft 254 kts 351°
2026-04-26 21:35 41.12215 -74.12634 2964 ft 254 kts 351°
2026-04-26 21:35 41.13929 -74.12948 2952 ft 252 kts
2026-04-26 21:36 41.15523 -74.12146 2965 ft 250 kts 40°
2026-04-26 21:36 41.16239 -74.10979 2971 ft 250 kts 61°
2026-04-26 21:36 41.17089 -74.08119 2968 ft 250 kts 71°
2026-04-26 21:36 41.17611 -74.05939 2961 ft 250 kts 72°
2026-04-26 21:37 41.18095 -74.03713 2963 ft 250 kts 73°
2026-04-26 21:37 41.18552 -74.01485 2962 ft 250 kts 74°
2026-04-26 21:37 41.18991 -73.99232 2960 ft 251 kts 77°
2026-04-26 21:37 41.18942 -73.96948 2978 ft 253 kts 98°
2026-04-26 21:38 41.18624 -73.94653 2848 ft 250 kts 99°
2026-04-26 21:38 41.18310 -73.92413 2646 ft 241 kts 99°
2026-04-26 21:38 41.18010 -73.90276 2406 ft 235 kts 99°
2026-04-26 21:38 41.17717 -73.88203 2350 ft 222 kts 99°
2026-04-26 21:39 41.17434 -73.86197 2094 ft 220 kts 99°
2026-04-26 21:39 41.17158 -73.84248 1963 ft 211 kts 99°
2026-04-26 21:39 41.16896 -73.82409 1962 ft 197 kts 99°
2026-04-26 21:39 41.16517 -73.80729 1946 ft 187 kts 119°
2026-04-26 21:40 41.15814 -73.79372 1975 ft 175 kts 123°
2026-04-26 21:40 41.15120 -73.78068 1991 ft 174 kts 123°
2026-04-26 21:40 41.14421 -73.76787 1964 ft 175 kts 130°
2026-04-26 21:40 41.13417 -73.75842 1975 ft 179 kts 147°
2026-04-26 21:41 41.12331 -73.75002 1546 ft 189 kts 148°
2026-04-26 21:41 41.11203 -73.74136 1218 ft 190 kts 148°
2026-04-26 21:41 41.10139 -73.73321 865 ft 175 kts 147°
2026-04-26 21:41 41.09211 -73.72613 822 ft 146 kts 147°
2026-04-26 21:42 41.08465 -73.72040 693 ft 130 kts 146°
2026-04-26 21:42 41.07696 -73.71444 476 ft 120 kts 146°
2026-04-26 21:42 41.07046 -73.70932 414 ft 100 kts 150°
2026-04-26 21:42 41.06670 -73.70644 402 ft 75 kts 149°
2026-04-26 21:43 41.06141 -73.70255 382 ft 46 kts 152°
2026-04-26 21:43 41.06024 -73.70180 377 ft 17 kts 173°
2026-04-26 21:43 41.05956 -73.70309 375 ft 19 kts 278°
2026-04-26 21:43 41.06041 -73.70422 379 ft 16 kts 331°
2026-04-26 21:44 41.06132 -73.70493 382 ft 14 kts 330°
2026-04-26 21:44 41.06221 -73.70561 386 ft 14 kts 329°
2026-04-26 21:44 41.06303 -73.70624 390 ft 13 kts 330°
2026-04-26 21:44 41.06357 -73.70665 393 ft 13 kts 329°
2026-04-26 21:45 41.06441 -73.70805 397 ft 15 kts 280°
2026-04-26 21:45 41.06414 -73.70867 398 ft 5 kts 203°
2026-04-26 21:45 41.06372 -73.70907 398 ft 8 kts 223°
2026-04-26 21:45 41.06345 -73.70921 398 ft 0 kts 192°